Preview of NWS' New Version of Forecast
This preview is not operational and should not be used for support decisions.

Regional Weather Roundup (RWR)

Issued by National Weather Service (NWS)

                            
000
ASUS43 KLSX 171607
RWRMO 

WEATHER SUMMARY FOR MISSOURI
NATIONAL WEATHER SERVICE SPRINGFIELD MO
1000 AM CST SUN FEB 17 2019

NOTE: "FAIR" INDICATES FEW OR NO CLOUDS BELOW 12,000 FEET WITH NO
       SIGNIFICANT WEATHER AND/OR OBSTRUCTIONS TO VISIBILITY.
       CURRENT SKY AND/OR WEATHER CONDITIONS ARE NOT AVAILABLE FOR
       CHILLICOTHE AND FARMINGTON.

MOZ001>031-035>038-043-044-053-054-171700-
...NORTHERN AND WESTERN MISSOURI...
  
CITY           SKY/WX    TMP DP  RH WIND       PRES   REMARKS
KANSAS CTY INT CLOUDY    23  19  85 NW10      29.85R WCI  12          
KANSAS C DTWN  CLOUDY    26  19  74 W14       29.88R WCI  14          
LEE'S SUMMIT   CLOUDY    24  21  88 W12       29.86R WCI  13          
ST JOSEPH      CLOUDY    22  20  92 W16       29.86R FOG     WCI   8  
CHILLICOTHE      N/A     28  26  92 VRB6      29.82R WCI  22          
KIRKSVILLE     CLOUDY    28  28 100 CALM      29.78R FOG              
     
$$
MOZ066>068-077>081-088>096-101>105-171700-
...SOUTHWEST MISSOURI...
  
CITY           SKY/WX    TMP DP  RH WIND       PRES   REMARKS
SPRINGFIELD    CLOUDY    29  24  82 W8        29.87R WCI  21          
JOPLIN         CLOUDY    27  22  81 W15       29.93R WCI  15          
BRANSON        CLOUDY    28  28 100 W10G21    29.88R FOG     WCI  19  
               
$$
MOZ032>034-039>042-045>050-055>058-069>072-171700-
...CENTRAL MISSOURI...  
  
CITY           SKY/WX    TMP DP  RH WIND       PRES   REMARKS
COLUMBIA       CLOUDY    30  27  88 W14       29.80R FOG     WCI  19  
JEFFERSON CITY CLOUDY    31  26  82 W15       29.83R WCI  20          
ROLLA          CLOUDY    32  29  88 W9        29.79R WCI  24          
SEDALIA        CLOUDY    27  24  89 W12       29.85R WCI  17          
WHITEMAN AFB   CLOUDY    26  21  83 W15       29.77F WCI  13          
WARRENSBURG    CLOUDY    28  21  74 W12       29.87R WCI  18          
OSAGE BEACH    CLOUDY    29  27  92 W9G16     29.85R WCI  20          
               
$$
MOZ051-052-059>065-171700-
...EAST CENTRAL MISSOURI...
  
CITY           SKY/WX    TMP DP  RH WIND       PRES   REMARKS
ST LOUIS INTL  DRIZZLE   33  30  88 SE5       29.78S FOG     WCI  29  
SPIRIT OF STL  CLOUDY    33  31  92 CALM      29.78S FOG              
ST CHARLES     CLOUDY    32  31  96 E5        29.78S FOG     WCI  27  
                   
$$
MOZ072>076-082>087-097>100-106>115-171700-
...SOUTH CENTRAL AND SOUTHEAST MISSOURI...
  
CITY           SKY/WX    TMP DP  RH WIND       PRES   REMARKS
CAPE GIRARDEAU CLOUDY    34  32  92 W7        29.81S FOG     WCI  28  
FARMINGTON     CLOUDY    36  33  89 CALM      29.79R                  
POPLAR BLUFF   CLOUDY    37  36  96 W7        29.82F FOG              
WEST PLAINS    CLOUDY    33  31  92 W9        29.83R WCI  25          
                                       
$$